Punta Gorda, FL

2:56 PM EDT on March 28, 2017 (GMT -0400)
Charlotte County

Weather History for KPGD - September, 2012

Change the Weather History Date:

Friday, September 28, 2012

  Actual Average Record
Temperature  
Mean Temperature 82 °F -  
Max Temperature 91 °F 86 °F 93 °F (2002)
Min Temperature 73 °F 70 °F 68 °F (1996)
Cooling Degree Days 17    
Growing Degree Days 32 (Base 50)    
Moisture  
Dew Point 71 °F    
Average Humidity 75    
Maximum Humidity 94    
Minimum Humidity 45    
Precipitation  
Precipitation 0.00 in - - ()
Sea Level Pressure  
Sea Level Pressure 30.03 in    
Wind  
Wind Speed 5 mph (NE)    
Max Wind Speed 9 mph    
Max Gust Speed -    
Visibility 10 miles    
Events      
Averages and records for this station are not official NWS values.
T = Trace of Precipitation, MM = Missing Value Source: NWS Daily Summary

Daily Weather History Graph

Daily Weather History Graph

Search for Another Location

Airport or City:

Trip Planner

Search our weather history database for the weather conditions in past years. The results will help you decide how hot, cold, wet, or windy it might be!

Date:

Astronomy

Sep. 28, 2012 Rise Set
Actual Time 7:19 AM EDT 7:17 PM EDT
Civil Twilight 6:56 AM EDT 7:40 PM EDT
Nautical Twilight 6:29 AM EDT 8:07 PM EDT
Astronomical Twilight 6:02 AM EDT 8:34 PM EDT
Moon 6:17 PM EDT 5:53 AM EDT
Length of Visible Light 12h 44m
Length of Day
11h 57m
Waxing Gibbous, 98% of the Moon is Illuminated
Sep 28
Waxing Gibbous
Sep 29
Full
Oct 8
Last Quarter
Oct 15
New
Oct 21
First Quarter

Hourly Weather History & Observations

Time (EDT) Temp. Heat Index Dew Point Humidity Pressure Visibility Wind Dir Wind Speed Gust Speed Precip Events Conditions
1:53 AM 73.9 °F - 72.0 °F 93% 30.06 in 10.0 mi NNE 3.5 mph - N/A   Clear
2:53 AM 73.9 °F - 72.0 °F 93% 30.05 in 10.0 mi NNE 3.5 mph - N/A   Clear
3:53 AM 73.0 °F - 71.1 °F 93% 30.04 in 10.0 mi NNE 4.6 mph - N/A   Clear
4:53 AM 73.9 °F - 72.0 °F 93% 30.03 in 10.0 mi North 3.5 mph - N/A   Partly Cloudy
5:53 AM 73.0 °F - 71.1 °F 93% 30.03 in 9.0 mi North 4.6 mph - N/A   Clear
6:53 AM 73.0 °F - 71.1 °F 93% 30.04 in 9.0 mi NNE 6.9 mph - N/A   Clear
7:22 AM 73.4 °F - 71.6 °F 94% 30.05 in 9.0 mi ENE 3.5 mph - N/A   Partly Cloudy
7:53 AM 73.0 °F - 71.1 °F 93% 30.05 in 9.0 mi East 3.5 mph - N/A   Clear
8:53 AM 78.1 °F - 73.0 °F 84% 30.07 in 10.0 mi NE 5.8 mph - N/A   Clear
9:53 AM 81.0 °F 86.2 °F 73.9 °F 79% 30.08 in 10.0 mi NE 8.1 mph - N/A   Scattered Clouds
10:03 AM 80.6 °F 85.4 °F 73.4 °F 79% 30.08 in 10.0 mi NNE 6.9 mph - N/A   Mostly Cloudy
10:24 AM 82.4 °F 88.2 °F 73.4 °F 74% 30.08 in 10.0 mi NE 6.9 mph - N/A   Scattered Clouds
10:53 AM 84.9 °F 92.1 °F 73.9 °F 69% 30.08 in 10.0 mi NE 8.1 mph - N/A   Scattered Clouds
11:53 AM 86.0 °F 92.2 °F 72.0 °F 63% 30.07 in 10.0 mi ENE 6.9 mph - N/A   Partly Cloudy
12:53 PM 88.0 °F 93.8 °F 71.1 °F 57% 30.04 in 10.0 mi ENE 8.1 mph - N/A   Scattered Clouds
1:53 PM 90.0 °F 94.5 °F 69.1 °F 50% 30.01 in 10.0 mi Variable 3.5 mph - N/A   Partly Cloudy
2:53 PM 90.0 °F 94.5 °F 69.1 °F 50% 29.99 in 10.0 mi NE 6.9 mph - N/A   Clear
3:53 PM 88.0 °F 92.1 °F 69.1 °F 53% 29.97 in 10.0 mi North 4.6 mph - N/A   Partly Cloudy
4:53 PM 91.0 °F 94.3 °F 66.9 °F 45% 29.95 in 10.0 mi East 4.6 mph - N/A   Scattered Clouds
5:53 PM 91.0 °F 95.2 °F 68.0 °F 47% 29.95 in 10.0 mi ENE 4.6 mph - N/A   Scattered Clouds
6:53 PM 84.9 °F 90.1 °F 71.1 °F 63% 29.97 in 10.0 mi Calm Calm - N/A   Scattered Clouds
7:53 PM 82.9 °F 88.0 °F 72.0 °F 69% 29.99 in 10.0 mi Calm Calm - N/A   Partly Cloudy
8:53 PM 80.1 °F 83.6 °F 71.1 °F 74% 30.01 in 10.0 mi East 9.2 mph - N/A   Scattered Clouds
9:53 PM 79.0 °F - 71.1 °F 77% 30.02 in 10.0 mi East 5.8 mph - N/A   Clear
10:53 PM 77.0 °F - 72.0 °F 84% 30.02 in 10.0 mi ENE 4.6 mph - N/A   Clear
11:53 PM 75.0 °F - 71.1 °F 87% 30.01 in 10.0 mi NE 5.8 mph - N/A   Clear